Telluride, CO

12:27 PM MDT on April 23, 2018 (GMT -0600)
Telluride Regional

Weather History for KTEX - October, 2014

Change the Weather History Date:

Tuesday, October 21, 2014

  Actual Average Record
Temperature  
Mean Temperature 49 °F -  
Max Temperature 53 °F 46 °F 63 °F (2016)
Min Temperature 44 °F 29 °F 19 °F (1996)
Degree Days  
Heating Degree Days 16    
Moisture  
Dew Point 38 °F    
Average Humidity 68    
Maximum Humidity 89    
Minimum Humidity 47    
Precipitation  
Precipitation 0.01 in - - ()
Sea Level Pressure  
Sea Level Pressure 30.26 in    
Wind  
Wind Speed 5 mph (ESE)    
Max Wind Speed 10 mph    
Max Gust Speed 9 mph    
Visibility 10 miles    
Events Rain , Thunderstorm    
Averages and records for this station are not official NWS values.
T = Trace of Precipitation, MM = Missing Value Source: NWS Daily Summary

Daily Weather History Graph

Daily Weather History Graph

Search for Another Location

Airport or City:

Astronomy

Oct. 21, 2014 Rise Set
Actual Time 7:26 AM MDT 6:25 PM MDT
Civil Twilight 6:59 AM MDT 6:52 PM MDT
Nautical Twilight 6:28 AM MDT 7:23 PM MDT
Astronomical Twilight 5:58 AM MDT 7:53 PM MDT
Moon 5:15 AM MDT (10/21) 5:19 PM MDT (10/21)
Length of Visible Light 11h 53m
Length of Day
10h 59m
Waning Crescent, 5% of the Moon is Illuminated
Oct 21
Waning Crescent
Oct 23
New
Oct 30
First Quarter
Nov 6
Full
Nov 14
Last Quarter

Hourly Weather History & Observations

Time (MDT) Temp. Windchill Dew Point Humidity Pressure Visibility Wind Dir Wind Speed Gust Speed Precip Events Conditions
12:15 AM 45.3 °F 41.1 °F 34.5 °F 66% 30.30 in 10.0 mi ESE 8.1 mph - N/A   Clear
12:35 AM 45.0 °F 41.2 °F 34.7 °F 67% 30.30 in 10.0 mi East 6.9 mph - N/A   Scattered Clouds
12:55 AM 46.8 °F - 34.0 °F 61% 30.30 in 10.0 mi Calm Calm - N/A   Mostly Cloudy
1:15 AM 46.9 °F - 34.2 °F 61% 30.30 in 10.0 mi Calm Calm - N/A   Overcast
1:35 AM 47.8 °F - 34.3 °F 60% 30.31 in 10.0 mi ESE 5.8 mph - N/A   Overcast
1:55 AM 48.6 °F - 37.0 °F 64% 30.31 in 10.0 mi ESE 5.8 mph - N/A   Overcast
2:15 AM 48.2 °F - 37.0 °F 65% 30.31 in 10.0 mi ESE 6.9 mph - N/A   Overcast
2:35 AM 47.8 °F - 36.9 °F 66% 30.30 in 10.0 mi East 5.8 mph - N/A   Mostly Cloudy
2:55 AM 46.0 °F 43.1 °F 39.0 °F 76% 30.30 in 10.0 mi East 5.8 mph 9.2 mph N/A Rain Light Rain
3:15 AM 47.5 °F - 37.9 °F 69% 30.30 in 10.0 mi ESE 3.5 mph - N/A   Overcast
3:35 AM 47.5 °F - 37.9 °F 69% 30.30 in 10.0 mi ESE 6.9 mph - N/A   Overcast
3:55 AM 47.1 °F - 38.5 °F 72% 30.30 in 10.0 mi ESE 8.1 mph - N/A   Overcast
4:15 AM 46.4 °F 43.5 °F 38.7 °F 74% 30.30 in 10.0 mi ESE 5.8 mph - N/A   Overcast
4:35 AM 46.2 °F 41.2 °F 39.0 °F 76% 30.30 in 10.0 mi East 10.4 mph - N/A   Overcast
4:55 AM 45.9 °F 42.3 °F 38.7 °F 76% 30.29 in 10.0 mi East 6.9 mph - N/A   Overcast
5:15 AM 46.6 °F - 37.9 °F 72% 30.28 in 10.0 mi ESE 10.4 mph - N/A   Mostly Cloudy
5:35 AM 45.0 °F 40.1 °F 39.6 °F 81% 30.28 in 10.0 mi East 9.2 mph - N/A   Overcast
5:55 AM 45.7 °F 41.5 °F 38.8 °F 77% 30.28 in 10.0 mi East 8.1 mph - N/A   Overcast
6:15 AM 45.9 °F 43.6 °F 38.1 °F 74% 30.28 in 10.0 mi ENE 4.6 mph - N/A   Overcast
6:35 AM 46.9 °F - 38.3 °F 72% 30.28 in 10.0 mi East 8.1 mph - N/A   Overcast
6:55 AM 45.7 °F 42.7 °F 38.5 °F 76% 30.28 in 10.0 mi East 5.8 mph - N/A   Overcast
7:15 AM - - - N/A% 30.28 in 10.0 mi East 4.6 mph - N/A   Overcast
7:35 AM 45.3 °F 40.1 °F 38.8 °F 78% 30.28 in 10.0 mi East 10.4 mph - N/A   Overcast
7:55 AM 45.3 °F 43.0 °F 38.7 °F 78% 30.28 in 10.0 mi ENE 4.6 mph - N/A   Overcast
8:15 AM 45.7 °F 42.0 °F 38.5 °F 76% 30.28 in 10.0 mi East 6.9 mph - N/A   Overcast
8:35 AM 46.9 °F - 37.9 °F 71% 30.29 in 10.0 mi ESE 6.9 mph - N/A   Overcast
8:55 AM 48.2 °F - 38.3 °F 69% 30.29 in 10.0 mi Calm Calm - N/A   Overcast
9:15 AM 49.1 °F - 37.8 °F 65% 30.29 in 10.0 mi Calm Calm - N/A   Overcast
9:35 AM 51.8 °F - 37.0 °F 57% 30.29 in 10.0 mi SE 4.6 mph - N/A   Overcast
9:55 AM 52.3 °F - 35.6 °F 53% 30.29 in 10.0 mi ESE 8.1 mph - N/A   Mostly Cloudy
10:15 AM 53.1 °F - 35.1 °F 50% 30.28 in 10.0 mi SE 3.5 mph - N/A   Clear
10:35 AM 52.9 °F - 34.2 °F 49% 30.28 in 10.0 mi SE 3.5 mph - N/A   Scattered Clouds
10:55 AM 52.9 °F - 33.8 °F 48% 30.28 in 10.0 mi South 8.1 mph - N/A   Mostly Cloudy
11:15 AM 52.7 °F - 32.7 °F 47% 30.28 in 10.0 mi Calm Calm - N/A   Overcast
11:35 AM 52.3 °F - 33.3 °F 48% 30.28 in 10.0 mi Calm Calm - N/A   Overcast
11:55 AM 52.3 °F - 33.3 °F 48% 30.27 in 10.0 mi Calm Calm - N/A   Overcast
12:15 PM 50.7 °F - 36.1 °F 57% 30.27 in 10.0 mi West 8.1 mph - N/A   Overcast
12:35 PM 50.0 °F - 36.7 °F 60% 30.27 in 10.0 mi WSW 6.9 mph - N/A   Overcast
12:55 PM 48.9 °F - 37.2 °F 64% 30.28 in 10.0 mi SW 4.6 mph - N/A Rain Light Rain
1:15 PM 45.1 °F 41.4 °F 40.3 °F 83% 30.27 in 7.0 mi East 6.9 mph - N/A Rain Light Rain
1:35 PM 45.0 °F - 41.9 °F 89% 30.26 in 7.0 mi Calm Calm - 0.01 in Rain Light Rain
1:55 PM 45.3 °F - 42.1 °F 88% 30.26 in 10.0 mi Calm Calm - 0.01 in   Light Drizzle
2:15 PM 47.3 °F - 41.9 °F 82% 30.24 in 10.0 mi East 9.2 mph - N/A Rain Light Rain
2:35 PM 47.5 °F - 41.5 °F 80% 30.24 in 10.0 mi SE 8.1 mph - N/A Rain Light Rain
2:55 PM 49.3 °F - 41.0 °F 73% 30.23 in 10.0 mi Calm Calm - N/A   Mostly Cloudy
3:55 PM 50.9 °F - 38.8 °F 63% 30.20 in 10.0 mi Calm Calm - N/A   Overcast
4:15 PM 51.3 °F - 39.0 °F 63% 30.20 in 10.0 mi Calm Calm - N/A Thunderstorm Mostly Cloudy
4:35 PM 52.7 °F - 39.0 °F 60% 30.20 in 10.0 mi Calm Calm - N/A   Mostly Cloudy
4:55 PM 51.8 °F - 38.5 °F 60% 30.20 in 10.0 mi Calm Calm - N/A   Overcast
5:15 PM 51.4 °F - 38.1 °F 60% 30.19 in 10.0 mi Calm Calm - N/A   Overcast
5:35 PM 51.3 °F - 39.2 °F 63% 30.19 in 10.0 mi Calm Calm - N/A   Mostly Cloudy
5:55 PM 50.9 °F - 39.7 °F 66% 30.20 in 10.0 mi Calm Calm - N/A Thunderstorm Mostly Cloudy
6:15 PM 50.9 °F - 37.4 °F 60% 30.19 in 10.0 mi South 4.6 mph - N/A Thunderstorm Scattered Clouds
6:35 PM 50.0 °F - 39.0 °F 66% 30.20 in 10.0 mi Calm Calm - N/A   Scattered Clouds
6:55 PM 50.0 °F - 38.3 °F 64% 30.20 in 10.0 mi SE 6.9 mph - N/A   Mostly Cloudy
7:15 PM 49.3 °F - 38.5 °F 66% 30.20 in 10.0 mi ESE 4.6 mph - N/A   Overcast
7:35 PM 49.1 °F - 37.9 °F 65% 30.21 in 10.0 mi Calm Calm - N/A   Overcast
7:55 PM 48.4 °F - 38.1 °F 68% 30.22 in 10.0 mi WSW 3.5 mph - N/A   Scattered Clouds
8:15 PM 47.3 °F - 38.7 °F 72% 30.22 in 10.0 mi Calm Calm - N/A   Scattered Clouds
8:35 PM 47.3 °F - 38.7 °F 72% 30.22 in 10.0 mi East 4.6 mph - N/A   Scattered Clouds
8:55 PM 46.0 °F - 38.7 °F 75% 30.23 in 10.0 mi Calm Calm - N/A   Scattered Clouds
9:15 PM 45.0 °F - 37.4 °F 75% 30.23 in 10.0 mi Calm Calm - N/A   Clear
9:35 PM 45.9 °F 44.6 °F 37.2 °F 72% 30.23 in 10.0 mi ESE 3.5 mph - N/A   Clear
9:55 PM 46.2 °F - 36.5 °F 69% 30.24 in 10.0 mi Calm Calm - N/A   Scattered Clouds
10:15 PM 45.1 °F - 36.1 °F 71% 30.25 in 10.0 mi Calm Calm - N/A   Mostly Cloudy
10:35 PM 46.6 °F - 35.6 °F 66% 30.25 in 10.0 mi Calm Calm - N/A   Overcast
10:55 PM 45.9 °F - 36.3 °F 69% 30.25 in 10.0 mi Calm Calm - N/A   Scattered Clouds
11:15 PM 45.3 °F - 35.6 °F 69% 30.25 in 10.0 mi Calm Calm - N/A   Scattered Clouds
11:35 PM 44.1 °F - 35.2 °F 71% 30.25 in 10.0 mi Calm Calm - N/A   Scattered Clouds